AstroCast 0.2
1 44083U 19018F 23187.64395151 .00047486 00000-0 77957-3 0 9990
2 44083 97.2638 247.6216 0006519 164.9195 195.2254 15.52258228237437
AISTechSat 3
1 44103U 19018AB 23187.68979834 .00024938 00000-0 58300-3 0 9991
2 44103 97.2509 246.0233 0009164 190.9830 169.1219 15.42107832237516
AISat 1
1 44104U 19018AC 23186.24696060 .00018596 00000-0 35172-3 0 9995
2 44104 97.3746 277.9275 0040059 190.6523 169.3883 15.47545821238513
Prox-1
1 44339U 19036A 23186.62475814 .00004620 00000-0 90542-3 0 9994
2 44339 24.0010 287.3060 0010264 105.3528 254.8099 14.59655694214384
Move-IIb
1 44398U 19038N 23187.70012165 .00045574 00000-0 10425-2 0 9991
2 44398 97.6594 171.4724 0012581 202.0236 158.0472 15.42598735221672
SONATE
1 44400U 19038Q 23187.36931312 .00007840 00000-0 34819-3 0 9999
2 44400 97.6844 165.4159 0018675 241.8248 118.1101 15.21681620221155
BeeSat 9
1 44412U 19038AC 23187.69482780 .00020460 00000-0 68564-3 0 9995
2 44412 97.6746 168.9878 0013398 227.7110 132.2995 15.30870597221143
JAISAT-1
1 44419U 19038F 23186.92182901 .00018448 00000-0 61363-3 0 9992
2 44419 97.6737 169.2791 0012674 226.1218 133.8976 15.31143165221406
Taurus 1
1 44530U 19059C 23187.73965247 .00003656 00000-0 94928-3 0 9999
2 44530 98.5572 295.8450 0012991 39.3462 320.8673 14.50266489201474
Duchifat 3
1 44854U 19089C 23187.76029257 .00007429 00000-0 49697-3 0 9991
2 44854 36.9630 334.2844 0007704 115.7158 244.4382 15.06561335195780
OPS-SAT
1 44878U 19092F 23187.09686604 .00017817 00000-0 51852-3 0 9990
2 44878 97.4743 16.1000 0009704 72.8128 287.4176 15.35437361196697
TO-108
1 44881U 19093C 23187.80191798 .00000933 00000-0 12236-3 0 9993
2 44881 97.8616 265.9197 0015076 19.7222 340.4571 14.82583332191706
FloripaSat 1
1 44885U 19093G 23187.74230802 .00003151 00000-0 36648-3 0 9998
2 44885 97.8682 268.6888 0013803 22.1991 337.9819 14.85965706191851
RS-44
1 44909U 19096E 23186.36109653 .00000013 00000-0 -33243-6 0 9990
2 44909 82.5225 335.8674 0218166 144.2780 217.3144 12.79721976164530
BY70-2
1 45857U 20042B 23187.80837152 .00016468 00000-0 16604-2 0 9996
2 45857 97.9251 267.7832 0007261 295.7372 64.3096 14.91173572162467
UPMSat 2
1 46276U 20061E 23187.13206707 .00007219 00000-0 30284-3 0 9990
2 46276 97.3454 254.3209 0000560 149.5335 210.5935 15.23779359157172
AmicalSat
1 46287U 20061R 23187.36146582 .00009766 00000-0 44924-3 0 9996
2 46287 97.3988 253.5143 0002707 60.7261 299.4245 15.20537935156629
SALSAT
1 46495U 20068K 23187.83042913 .00003711 00000-0 24536-3 0 9990
2 46495 97.7706 136.0440 0016996 57.5131 302.7737 15.07909820152038
CAPE 3
1 47309U 21002A 23187.17743431 .00029861 00000-0 68823-3 0 9995
2 47309 60.6779 346.6881 0008982 226.0058 134.0298 15.42429261137213
AO-109
1 47311U 21002C 23187.46797097 .00022846 00000-0 57400-3 0 9992
2 47311 60.6817 344.3639 0008100 209.4373 150.6266 15.39956355137261
ExoCube 2
1 47319U 21002L 23187.15300863 .00021254 00000-0 54942-3 0 9997
2 47319 60.6797 347.8181 0008731 215.3928 144.6588 15.39118416137132
UVSQ-SAT
1 47438U 21006AB 23187.12915985 .00012363 00000-0 49775-3 0 9996
2 47438 97.3823 243.9692 0009563 25.8059 334.3654 15.24972129135534
YUSAT 1
1 47439U 21006AC 23187.12278940 .00016461 00000-0 61062-3 0 9996
2 47439 97.3832 244.7944 0008620 23.8721 336.2917 15.27639984135581
SOMP 2b
1 47445U 21006AJ 23187.38969372 .00011548 00000-0 47575-3 0 9991
2 47445 97.3790 243.4481 0009588 29.9367 330.2417 15.24213010135540
IDEASSat
1 47458U 21006AX 23186.39367400 .00010512 00000-0 44197-3 0 9996
2 47458 97.3888 243.2534 0009038 33.3945 326.7860 15.23556816135376
CubeSX-Sirius-HSE
1 47951U 21022V 23187.77678446 .00007768 00000-0 43264-3 0 9993
2 47951 97.4951 84.8159 0016554 266.6032 93.3305 15.13780542125999
CubeSX-HSE
1 47952U 21022W 23187.81527391 .00007802 00000-0 43372-3 0 9990
2 47952 97.4946 84.9026 0016569 265.7629 94.1709 15.13844904126009
KSU-Cubesat
1 47954U 21022Y 23187.65769484 .00009283 00000-0 50257-3 0 9990
2 47954 97.4956 85.1507 0015860 264.7675 95.1748 15.14744872125728
GRBAlpha
1 47959U 21022AD 23187.66866374 .00008474 00000-0 46969-3 0 9998
2 47959 97.4951 84.8444 0016453 266.7646 93.1703 15.13927007124802
Orbicraft-Zorkiy
1 47960U 21022AE 23187.68303626 .00008229 00000-0 44721-3 0 9990
2 47960 97.4981 85.3134 0016000 265.5628 94.3776 15.14644627125511
STECCO
1 47962U 21022AG 23187.67638839 .00016448 00000-0 74567-3 0 9991
2 47962 97.4950 87.8544 0010436 248.8373 111.1747 15.20869634125003
DO-111
1 47963U 21022AH 23187.69968948 .00559507 00000-0 31833-2 0 9997
2 47963 97.4881 97.7000 0012539 159.3341 200.8434 15.77377722125655
MO-110
1 47964U 21022AJ 23187.45222390 .00015122 00000-0 66888-3 0 9995
2 47964 97.4967 88.2572 0012381 244.4318 115.5638 15.21711125125000
FEES
1 48082U 21022AL 23186.53497443 .00027375 00000-0 98259-3 0 9998
2 48082 97.4959 88.7782 0007947 231.1459 128.9072 15.28625393124661
TUBIN
1 48900U 21059X 23187.77825927 .00008080 00000-0 38072-3 0 9995
2 48900 97.6032 321.5077 0008629 205.8667 154.2137 15.19746859112152
IT-SPINS
1 49017U 21013G 23186.74196743 .00029256 00000-0 64445-3 0 9999
2 49017 51.5926 347.6571 0005465 30.8499 329.2806 15.43680597112571
LEDSAT
1 49069U 21073D 23187.41520802 .00007738 00000-0 42059-3 0 9992
2 49069 97.4813 257.9667 0024764 56.7433 303.6167 15.14502735103817
CUTE
1 49263U 21088D 23187.12272343 .00007768 00000-0 49396-3 0 9990
2 49263 97.5432 252.5974 0017843 192.5744 167.5042 15.08956588 97146
TeikyoSat 4
1 49396U 21102B 23187.11445834 .00000924 00000-0 74230-4 0 9993
2 49396 97.5097 238.5221 0015556 22.1058 338.0835 15.02308902 90619
Z-Sat
1 49399U 21102E 23187.76644733 .00003652 00000-0 26049-3 0 9991
2 49399 97.4824 240.2622 0021816 6.4631 353.6873 15.04976983 90833
KOSEN 1
1 49402U 21102H 23187.61822028 .00004020 00000-0 27298-3 0 9992
2 49402 97.4760 240.6629 0020384 356.3660 3.7416 15.06780434 90883
HO-113
1 50466U 21131B 23187.70931384 .00000510 00000-0 17976-3 0 9994
2 50466 98.5522 269.1941 0005472 85.7406 274.4407 14.38950098 80164
Tevel-3
1 50988U 22002E 23187.66096982 .00017682 00000-0 69226-3 0 9995
2 50988 97.4318 254.5019 0008733 158.6453 201.5151 15.25835237 81738
Tevel-8
1 50989U 22002F 23187.68057441 .00017495 00000-0 68638-3 0 9993
2 50989 97.4334 254.5826 0008754 157.9377 202.2240 15.25766654 81736
Tevel-5
1 50998U 22002Q 23187.66046808 .00018515 00000-0 70599-3 0 9999
2 50998 97.4314 254.9082 0009938 154.5824 205.5906 15.26693241 81767
Tevel-6
1 50999U 22002R 23187.65898635 .00018302 00000-0 69788-3 0 9994
2 50999 97.4313 254.9010 0009939 154.3488 205.8245 15.26693740 81766
Tevel-1
1 51013U 22002AF 23187.67137040 .00017318 00000-0 67911-3 0 9992
2 51013 97.4312 254.4522 0008635 158.5194 201.6408 15.25786025 81738
Grizu-263a
1 51025U 22002AT 23187.17000504 .00085490 00000-0 15714-2 0 9993
2 51025 97.4457 260.2701 0008490 164.1122 196.0397 15.48880854 81990
NO-116
1 51031U 22002AZ 23186.97526843 .00032010 00000-0 97158-3 0 9999
2 51031 97.4439 257.0240 0010194 158.1893 201.9785 15.33983144 81785
IRIS-A
1 51044U 22002BN 23187.63083475 .00007784 00000-0 36669-3 0 9996
2 51044 97.4333 252.7934 0008891 162.7964 197.3574 15.19753673 81617
Tevel-7
1 51062U 22002CG 23187.68132426 .00017585 00000-0 68948-3 0 9997
2 51062 97.4330 254.5560 0008712 157.6110 202.5510 15.25787292 81730
